Date,TemperatureHighF,TemperatureAvgF,TemperatureLowF,DewpointHighF,DewpointAvgF,DewpointLowF,HumidityHigh,HumidityAvg,HumidityLow,PressureMaxIn,PressureMinIn,WindSpeedMaxMPH,WindSpeedAvgMPH,GustSpeedMaxMPH,PrecipitationSumIn
2013-1-1,55.2,55.2,55.2,37.4,37.4,37.4,51,51,51,29.99,29.99,7,7,14,0.00
2013-1-2,55.2,55.2,55.2,37.4,37.4,37.4,51,51,51,29.99,29.99,7,7,14,0.00
2013-1-3,55.2,55.2,55.2,37.4,37.4,37.4,51,51,51,29.99,29.99,7,7,14,0.00
2013-1-4,55.2,55.2,55.2,37.4,37.4,37.4,51,51,51,29.99,29.99,7,7,14,0.00
2013-1-5,55.2,55.2,55.2,37.4,37.4,37.4,51,51,51,29.99,29.99,7,7,14,0.00
2013-1-6,55.2,55.2,55.2,37.4,37.4,37.4,51,51,51,29.99,29.99,7,7,14,0.00
2013-1-7,55.2,55.2,55.2,37.4,37.4,37.4,51,51,51,29.99,29.99,7,7,14,0.00
2013-1-8,55.2,55.2,55.2,37.4,37.4,37.4,51,51,51,29.99,29.99,7,7,14,0.00
2013-1-9,55.2,55.2,55.2,37.4,37.4,37.4,51,51,51,29.99,29.99,7,7,14,0.00
2013-1-10,55.2,55.2,55.2,37.4,37.4,37.4,51,51,51,29.99,29.99,7,7,14,0.00
2013-1-11,55.2,55.2,55.2,37.4,37.4,37.4,51,51,51,29.99,29.99,7,7,14,0.00
2013-1-12,55.2,55.2,55.2,37.4,37.4,37.4,51,51,51,29.99,29.99,7,7,14,0.00
2013-1-13,55.2,55.2,55.2,37.4,37.4,37.4,51,51,51,29.99,29.99,7,7,14,0.00
2013-1-14,55.2,55.2,55.2,37.4,37.4,37.4,51,51,51,29.99,29.99,7,7,14,0.00
2013-1-15,55.2,55.2,55.2,37.4,37.4,37.4,51,51,51,29.99,29.99,7,7,14,0.00
2013-1-16,55.2,55.2,55.2,37.4,37.4,37.4,51,51,51,29.99,29.99,7,7,14,0.00
2013-1-17,55.2,55.2,55.2,37.4,37.4,37.4,51,51,51,29.99,29.99,7,7,14,0.00
2013-1-18,55.2,55.2,55.2,37.4,37.4,37.4,51,51,51,29.99,29.99,7,7,14,0.00
2013-1-19,55.2,55.2,55.2,37.4,37.4,37.4,51,51,51,29.99,29.99,7,7,14,0.00
2013-1-20,55.2,55.2,55.2,37.4,37.4,37.4,51,51,51,29.99,29.99,7,7,14,0.00
2013-1-21,55.2,55.2,55.2,37.4,37.4,37.4,51,51,51,29.99,29.99,7,7,14,0.00
2013-1-22,55.2,55.2,55.2,37.4,37.4,37.4,51,51,51,29.99,29.99,7,7,14,0.00
2013-1-23,55.2,55.2,55.2,37.4,37.4,37.4,51,51,51,29.99,29.99,7,7,14,0.00
2013-1-24,55.2,55.2,55.2,37.4,37.4,37.4,51,51,51,29.99,29.99,7,7,14,0.00
2013-1-25,55.2,55.2,55.2,37.4,37.4,37.4,51,51,51,29.99,29.99,7,7,14,0.00
2013-1-26,55.2,55.2,55.2,37.4,37.4,37.4,51,51,51,29.99,29.99,7,7,14,0.00
2013-1-27,55.2,55.2,55.2,37.4,37.4,37.4,51,51,51,29.99,29.99,7,7,14,0.00
2013-1-28,55.2,55.2,55.2,37.4,37.4,37.4,51,51,51,29.99,29.99,7,7,14,0.00
2013-1-29,55.2,37.9,30.2,39.7,34.3,30.0,99,90,51,29.99,29.42,21,7,21,1.44
2013-1-30,30.2,22.7,15.1,29.8,18.6,10.4,99,85,62,29.79,29.43,28,11,28,0.00
2013-1-31,15.3,7.3,-1.8,10.8,-0.8,-8.2,82,69,55,30.27,29.79,24,8,24,0.00
2013-2-1,24.8,10.8,-6.3,17.7,3.3,-10.5,84,71,53,30.28,29.93,18,6,18,0.00
2013-2-2,34.3,26.2,22.5,29.2,20.7,14.9,99,80,57,30.08,29.92,14,5,14,0.00
2013-2-3,40.1,31.2,19.8,27.8,21.9,16.3,86,70,44,30.09,29.69,18,6,18,0.00
2013-2-4,34.7,27.4,21.0,28.2,22.4,18.0,95,82,58,29.89,29.64,21,6,21,0.00
2013-2-5,51.8,35.3,23.7,36.6,27.9,21.8,96,77,48,29.96,29.73,16,5,16,0.00
2013-2-6,54.7,41.8,28.0,39.1,33.3,26.3,94,73,50,29.97,29.75,16,5,16,0.00
2013-2-7,46.2,36.5,28.9,43.6,34.4,26.1,99,92,76,30.09,29.72,22,9,22,0.24
2013-2-8,34.5,28.2,25.3,28.6,25.7,23.4,98,90,77,30.22,30.06,16,6,16,0.00
2013-2-9,47.8,36.4,27.3,35.7,31.5,26.3,99,84,60,30.09,29.60,21,9,21,0.01
2013-2-10,50.0,38.5,31.8,45.5,35.0,23.4,99,88,64,29.63,29.20,33,14,33,0.15
2013-2-11,40.5,31.2,23.7,28.1,24.1,21.3,96,75,57,30.03,29.63,30,9,30,0.00
2013-2-12,48.7,32.8,19.9,30.9,24.3,19.7,99,75,38,30.03,29.77,17,4,17,0.00
2013-2-13,54.1,39.3,26.2,31.8,27.3,22.7,87,65,35,29.78,29.60,15,5,15,0.00
2013-2-14,46.4,37.7,25.9,33.3,28.7,13.0,91,71,45,30.09,29.64,23,7,23,0.00
2013-2-15,33.8,23.7,14.4,20.6,15.4,10.6,90,71,46,30.22,30.09,20,6,20,0.00
2013-2-16,40.1,25.6,12.4,22.0,17.0,10.5,95,72,36,30.19,29.91,13,5,13,0.00
2013-2-17,54.9,39.4,25.2,32.0,26.3,20.0,84,62,38,29.91,29.48,19,6,19,0.00
2013-2-18,43.0,32.4,17.6,34.1,25.4,11.4,99,75,59,29.91,29.42,27,9,27,0.00
2013-2-19,29.7,16.9,9.0,12.4,3.9,-3.1,82,59,26,30.23,29.91,20,8,20,0.00
2013-2-20,25.7,15.5,2.1,8.3,3.1,-3.0,82,59,40,30.27,30.10,17,7,17,0.00
2013-2-21,23.2,21.5,20.1,22.8,16.9,8.3,99,83,56,30.12,29.67,31,12,31,0.00
2013-2-22,28.6,21.4,15.3,22.8,17.7,12.7,99,86,65,29.90,29.66,14,5,14,0.00
2013-2-23,36.9,21.2,3.0,24.3,15.3,1.1,95,79,55,29.89,29.75,11,4,11,0.04
2013-2-24,48.6,31.7,15.4,28.7,23.6,14.8,98,74,43,29.92,29.79,9,3,9,0.00
2013-2-25,42.1,35.1,30.7,31.3,29.2,26.8,95,80,60,29.92,29.73,17,6,17,0.00
2013-2-26,33.1,30.1,28.0,32.1,28.9,25.7,99,95,87,29.73,29.59,27,10,27,0.07
2013-2-27,37.6,29.9,25.5,28.4,25.6,22.7,99,85,65,29.91,29.71,24,10,24,0.02
2013-2-28,34.9,29.0,24.3,27.3,24.4,21.4,90,83,67,30.06,29.91,21,9,21,0.00
2013-3-1,31.6,26.6,22.5,24.6,20.9,15.8,93,79,64,30.21,30.05,15,8,15,0.00
2013-3-2,42.6,27.3,20.1,22.6,18.9,15.5,84,71,37,30.22,30.01,11,4,14,0.00
2013-3-3,40.3,30.8,21.9,26.1,22.0,17.3,85,70,54,30.01,29.65,21,8,21,0.00
2013-3-4,50.5,37.3,31.6,34.1,29.1,23.3,99,73,47,29.84,29.58,20,6,20,0.00
2013-3-5,33.4,28.7,24.4,32.7,22.1,17.4,98,76,68,30.22,29.83,27,11,27,0.00
2013-3-6,44.1,30.1,23.5,24.9,21.0,18.0,87,70,41,30.29,30.15,21,6,21,0.00
2013-3-7,46.2,32.1,20.1,30.2,24.4,18.5,93,75,50,30.18,30.02,21,8,21,0.00
2013-3-8,55.6,41.2,30.7,38.5,32.4,25.5,86,72,47,30.09,29.82,23,8,23,0.01
2013-3-9,49.3,44.7,40.8,49.0,43.5,37.2,99,96,82,29.82,29.47,18,7,18,0.26
2013-3-10,45.7,32.2,25.2,45.4,31.9,24.9,99,99,97,29.73,29.50,24,7,24,0.11
2013-3-11,33.8,26.8,23.2,24.9,22.9,20.1,99,86,64,29.86,29.69,12,2,12,0.01
2013-3-12,39.0,28.8,23.0,27.9,23.0,19.3,93,79,63,30.18,29.85,22,8,22,0.00
2013-3-13,43.7,30.1,16.7,25.6,20.8,15.0,94,70,44,30.32,30.14,12,4,12,0.00
2013-3-14,60.4,43.9,32.0,42.6,32.9,23.5,97,67,45,30.15,29.94,14,5,14,0.00
2013-3-15,67.8,46.9,31.3,46.4,39.7,31.0,99,80,42,29.96,29.58,17,4,17,0.00
2013-3-16,37.8,33.7,27.7,37.5,29.5,22.9,99,85,72,30.05,29.70,24,10,24,0.00
2013-3-17,45.0,32.9,23.5,34.1,25.8,20.4,99,76,53,30.03,29.67,25,10,25,0.00
2013-3-18,40.5,33.8,24.3,34.3,25.7,16.1,99,74,44,29.90,29.62,21,6,21,0.15
2013-3-19,50.0,32.5,18.3,25.8,18.4,10.5,89,60,27,30.14,29.90,18,5,18,0.00
2013-3-20,35.1,24.9,15.3,21.5,10.3,4.3,82,56,28,30.24,29.98,24,8,24,0.00
2013-3-21,34.9,25.8,16.2,18.5,13.7,10.3,85,62,37,29.98,29.78,15,6,15,0.00
2013-3-22,35.8,29.6,23.7,22.8,18.8,15.2,82,65,47,29.90,29.83,13,5,13,0.00
2013-3-23,38.5,31.6,27.3,29.4,25.7,20.4,99,80,53,29.97,29.85,18,7,18,0.00
2013-3-24,32.0,27.3,23.7,27.6,24.5,21.2,99,89,72,29.89,29.82,24,10,24,0.01
2013-3-25,35.1,28.3,24.1,27.1,24.2,21.0,99,85,60,30.16,29.88,25,9,25,0.01
2013-3-26,43.5,31.3,17.8,25.3,22.0,17.1,99,70,43,30.22,30.11,12,4,12,0.00
2013-3-27,52.2,37.0,23.0,33.9,27.1,21.0,93,69,40,30.16,30.07,17,5,17,0.00
2013-3-28,64.6,45.4,27.3,35.8,31.4,25.9,96,63,27,30.13,30.03,14,4,14,0.00
2013-3-29,69.8,52.2,32.2,40.4,32.3,22.0,98,55,17,30.11,29.94,16,5,16,0.00
2013-3-30,70.0,55.2,45.9,54.7,44.0,33.5,99,68,42,29.98,29.74,21,5,21,0.17
2013-3-31,60.3,48.7,32.9,41.4,33.1,17.7,99,62,20,29.99,29.80,27,8,27,0.04
2013-4-1,42.4,31.4,19.8,32.5,21.0,13.2,99,68,32,30.17,29.99,21,7,21,0.02
2013-4-2,55.4,37.4,17.6,27.3,19.5,13.0,98,55,21,30.20,30.11,14,4,14,0.00
2013-4-3,57.2,40.9,24.8,26.5,23.6,20.0,86,54,25,30.24,30.10,15,4,15,0.00
2013-4-4,66.9,48.4,29.7,37.8,29.7,23.4,80,52,25,30.11,29.91,17,4,17,0.00
2013-4-5,66.4,51.8,32.9,41.9,34.9,29.8,89,56,33,30.05,29.66,18,7,18,0.00
2013-4-6,71.1,61.3,53.2,48.7,41.5,35.7,66,49,29,29.67,29.49,25,9,25,0.00
2013-4-7,77.9,59.0,41.4,57.1,41.6,35.3,99,58,23,29.76,29.54,19,6,19,0.07
2013-4-8,73.0,59.9,48.0,62.3,56.4,47.8,99,89,62,29.63,29.51,17,5,19,0.31
2013-4-9,74.5,56.4,41.7,64.1,54.4,41.5,99,93,68,29.76,29.52,27,8,27,0.21
2013-4-10,43.3,41.2,39.0,43.1,40.9,38.6,99,99,96,29.86,29.61,35,6,35,0.56
2013-4-11,39.0,34.4,32.5,38.8,32.8,29.3,99,94,75,29.63,29.52,20,9,20,0.02
2013-4-12,43.0,36.0,32.9,33.7,31.2,27.8,99,83,62,29.87,29.57,17,8,17,0.00
2013-4-13,54.7,41.8,27.9,39.7,32.7,25.2,91,72,50,29.90,29.59,21,6,21,0.00
2013-4-14,70.2,55.4,44.2,54.9,44.1,34.6,82,67,49,29.60,29.29,33,11,33,0.01
2013-4-15,47.7,42.1,35.2,35.1,31.1,24.1,80,65,45,29.94,29.56,15,5,15,0.00
2013-4-16,50.9,42.4,32.4,35.5,31.8,27.8,86,67,49,30.09,29.91,20,8,20,0.00
2013-4-17,46.0,42.9,39.9,44.3,41.1,34.9,99,94,66,30.03,29.50,30,10,30,2.02
2013-4-18,40.1,35.9,32.2,39.8,34.3,29.0,99,94,84,29.73,29.49,25,11,25,0.66
2013-4-19,49.3,37.7,28.9,30.3,25.4,20.7,92,64,36,29.97,29.68,21,10,21,0.00
2013-4-20,49.6,38.9,24.1,29.6,23.7,14.6,95,58,30,30.13,29.97,17,5,17,0.00
2013-4-21,68.9,56.0,43.3,51.6,38.2,29.0,98,53,29,30.07,29.92,30,9,30,0.02
2013-4-22,69.1,51.9,35.1,52.8,46.7,33.5,99,85,44,30.02,29.80,27,7,27,0.37
2013-4-23,43.5,35.8,31.6,33.6,29.4,25.9,96,78,57,30.05,29.97,25,11,25,0.00
2013-4-24,59.2,41.5,25.2,39.2,27.7,19.7,91,63,26,30.06,29.91,29,8,29,0.01
2013-4-25,69.8,51.6,32.7,41.1,33.2,24.0,94,56,22,30.15,29.95,16,5,16,0.00
2013-4-26,66.4,57.2,47.7,51.1,45.4,39.9,95,65,53,30.08,29.95,20,8,20,0.00
2013-4-27,72.5,56.8,45.7,51.0,48.1,44.6,99,76,43,30.09,29.85,11,3,11,0.00
2013-4-28,80.6,62.2,41.4,55.5,48.8,41.1,99,68,30,29.87,29.63,18,5,18,0.00
2013-4-29,86.4,71.8,57.0,63.1,57.4,52.3,93,64,32,29.67,29.45,15,5,15,0.00
2013-4-30,85.3,73.1,59.0,64.6,56.7,49.7,81,58,40,29.73,29.45,22,8,22,0.11
2013-5-1,59.0,47.4,35.6,50.9,41.5,35.4,99,81,65,30.21,29.73,30,14,30,0.78
2013-5-2,41.2,37.0,32.7,36.6,33.1,28.1,99,87,66,30.34,30.17,30,12,30,1.74
2013-5-3,40.5,37.0,34.5,35.5,32.6,30.4,94,84,73,30.22,29.85,26,10,26,0.01
2013-5-4,51.4,41.2,34.0,47.2,39.9,33.0,99,95,84,29.97,29.78,22,10,22,0.14
2013-5-5,54.9,48.7,42.4,52.1,47.4,41.6,99,95,86,30.01,29.94,14,6,14,0.01
2013-5-6,74.8,59.4,48.7,57.9,52.1,48.5,99,79,46,30.01,29.91,12,5,12,0.00
2013-5-7,80.1,64.7,46.4,58.3,49.1,38.7,99,63,25,29.97,29.85,13,2,13,0.00
2013-5-8,73.9,62.8,56.5,61.7,55.7,48.4,99,78,58,29.90,29.78,10,3,10,0.07
2013-5-9,73.2,62.0,56.8,62.3,58.2,54.1,99,88,64,29.85,29.73,17,5,17,0.34
2013-5-10,72.9,58.9,49.3,54.3,49.1,42.1,99,73,38,29.95,29.83,17,7,17,0.00
2013-5-11,63.3,55.1,44.8,47.2,31.0,15.0,82,43,19,30.12,29.89,30,9,30,0.00
2013-5-12,68.9,53.1,33.3,33.0,22.8,7.4,79,36,10,30.16,30.01,11,3,11,0.00
2013-5-13,82.6,65.2,45.0,54.2,40.1,27.9,68,43,20,30.02,29.76,18,5,18,0.00
2013-5-14,99.7,79.6,57.0,62.5,51.4,31.6,95,47,10,29.76,29.54,24,7,24,0.00
2013-5-15,84.9,74.0,61.3,53.8,45.7,32.3,61,38,16,29.81,29.67,21,6,21,0.00
2013-5-16,88.7,73.8,62.4,69.7,60.7,48.0,98,66,38,29.79,29.65,18,3,18,0.00
2013-5-17,88.9,73.4,62.2,66.0,61.9,58.2,99,70,39,29.82,29.72,12,4,12,0.00
2013-5-18,87.6,75.3,60.3,66.8,63.5,60.0,99,69,45,29.82,29.61,15,5,15,0.00
2013-5-19,87.6,69.5,59.4,69.0,62.1,57.3,99,81,37,29.69,29.39,28,5,28,1.54
2013-5-20,77.2,67.0,57.6,62.8,58.7,53.2,99,77,48,29.59,29.44,18,6,18,0.01
2013-5-21,70.3,62.9,56.8,58.3,52.3,46.5,93,70,46,29.62,29.51,21,8,21,0.00
2013-5-22,61.7,56.0,52.2,55.4,52.4,50.5,99,88,70,29.84,29.60,14,5,14,0.00
2013-5-23,76.8,61.2,51.8,54.8,49.7,41.9,99,70,31,30.13,29.83,17,5,17,0.00
2013-5-24,76.5,63.5,49.6,55.1,47.8,44.3,84,59,37,30.21,29.97,15,5,15,0.00
2013-5-25,79.7,65.6,55.8,66.6,57.8,45.7,99,77,56,30.08,29.89,16,6,16,0.22
2013-5-26,87.3,68.4,59.4,70.7,64.3,59.1,99,88,57,29.95,29.77,22,6,22,0.01
2013-5-27,79.0,67.2,59.0,66.9,63.1,58.7,99,88,59,29.84,29.57,18,4,18,1.69
2013-5-28,86.0,70.9,63.1,72.0,66.4,62.0,99,87,57,29.65,29.47,24,2,24,0.18
2013-5-29,78.6,70.3,63.3,72.3,66.4,60.7,99,88,74,29.69,29.52,23,3,23,0.67
2013-5-30,75.9,66.8,58.1,67.1,63.0,57.4,99,88,65,29.59,29.47,24,4,24,0.24
2013-5-31,80.6,70.0,58.1,65.8,59.7,50.1,99,73,37,29.63,29.52,14,3,14,0.01
2013-6-1,66.7,59.6,54.5,59.0,53.4,48.1,97,80,57,29.89,29.58,15,6,15,0.00
2013-6-2,71.6,58.4,51.3,51.9,48.7,44.1,99,72,41,30.00,29.89,15,3,15,0.00
2013-6-3,77.0,62.0,45.0,54.9,50.7,44.7,99,70,41,29.97,29.78,13,4,13,0.00
2013-6-4,71.8,64.7,59.2,66.6,59.6,52.9,96,84,72,29.88,29.80,16,4,16,0.00
2013-6-5,74.8,65.9,59.5,65.2,59.3,49.1,99,81,53,29.91,29.83,12,3,12,0.08
2013-6-6,75.2,64.3,50.5,59.0,54.2,49.5,99,72,48,29.89,29.83,14,2,14,0.00
2013-6-7,78.6,63.0,50.4,56.4,51.7,47.3,99,70,35,29.93,29.82,12,2,12,0.00
2013-6-8,77.7,64.2,52.0,64.3,56.7,48.8,99,78,50,29.83,29.61,16,2,16,0.89
2013-6-9,69.4,63.4,61.0,65.2,61.7,59.6,99,94,80,29.70,29.64,16,4,16,0.22
2013-6-10,85.3,70.1,61.7,67.8,63.6,60.6,99,82,50,29.81,29.69,9,1,9,0.00
2013-6-11,92.1,76.7,67.6,73.9,68.2,64.2,94,76,46,29.75,29.61,13,2,13,0.00
2013-6-12,94.5,80.7,63.7,74.4,67.9,56.5,83,66,47,29.88,29.61,18,5,18,0.00
2013-6-13,86.0,71.1,58.5,63.7,57.4,47.7,94,65,27,29.99,29.84,11,2,11,0.00
2013-6-14,80.1,70.6,62.8,69.2,64.5,59.1,99,82,55,29.94,29.75,24,4,24,0.93
2013-6-15,87.1,73.7,64.9,73.9,68.6,64.7,99,86,57,29.89,29.78,27,2,27,0.12
2013-6-16,91.2,76.0,64.4,72.1,66.7,60.3,99,77,41,29.88,29.82,11,2,11,0.00
2013-6-17,93.9,79.1,65.8,73.5,62.2,45.2,99,63,21,29.90,29.81,11,2,11,0.00
2013-6-18,89.1,72.7,63.0,66.4,60.4,54.2,96,68,33,29.97,29.86,11,1,11,0.04
2013-6-19,89.4,75.7,61.9,69.7,64.6,59.8,99,71,42,29.94,29.84,11,2,11,0.00
2013-6-20,90.9,80.5,69.3,73.6,70.1,65.6,92,72,54,29.90,29.77,15,4,15,0.00
2013-6-21,95.7,84.1,77.0,78.1,73.4,70.3,89,71,49,29.84,29.73,17,4,17,0.00
2013-6-22,94.8,83.4,71.2,75.3,71.0,65.9,94,67,48,29.91,29.74,15,3,15,0.00
2013-6-23,87.4,76.5,63.9,74.0,70.0,63.6,99,81,61,29.91,29.72,20,3,22,0.39
2013-6-24,85.1,75.2,68.0,75.0,71.6,61.7,99,89,63,29.88,29.63,19,2,19,0.33
2013-6-25,91.8,80.3,71.2,76.7,72.5,67.7,99,78,50,29.74,29.61,11,2,11,0.00
2013-6-26,95.7,82.7,71.2,77.0,70.1,59.6,99,69,34,29.81,29.57,12,2,12,0.00
2013-6-27,86.7,74.2,65.7,74.1,70.5,65.4,99,89,57,29.92,29.80,8,1,8,0.08
2013-6-28,88.9,78.3,69.1,69.8,60.7,52.1,89,58,31,29.87,29.76,19,4,19,0.00
2013-6-29,79.9,71.5,64.6,65.8,59.2,55.1,84,66,50,29.84,29.75,24,5,24,0.07
2013-6-30,82.0,70.0,57.7,61.6,55.0,48.2,99,63,36,29.99,29.84,16,4,16,0.00
2013-7-1,87.1,71.4,55.4,62.1,52.9,45.5,89,56,25,30.07,29.99,17,3,17,0.00
2013-7-2,88.7,72.0,55.9,62.3,56.5,49.3,94,61,30,30.06,29.95,9,1,9,0.00
2013-7-3,72.3,62.9,57.9,64.6,59.6,57.1,99,89,75,29.97,29.93,2,0,2,0.00
2013-10-6,0.0,0.0,0.0,71.3,71.3,71.3,0,0,100,29.92,29.76,0,0,0,0.00
2013-10-7,0.0,0.0,0.0,71.3,71.3,71.3,0,0,100,30.01,29.92,0,0,0,0.00
2013-10-9,0.0,0.0,0.0,71.3,71.3,71.3,0,0,100,30.01,29.94,0,0,0,0.00
2013-10-10,0.0,0.0,0.0,71.3,71.3,71.3,0,0,100,29.99,29.80,0,0,0,0.00
2013-10-11,0.0,0.0,0.0,71.3,71.3,71.3,0,0,100,29.83,29.66,0,0,0,0.00
2013-10-12,0.0,0.0,0.0,71.3,71.3,71.3,0,0,100,30.22,29.84,0,0,0,0.00
2013-10-13,0.0,0.0,0.0,71.3,71.3,71.3,0,0,100,30.36,30.22,0,0,0,0.00
2013-10-14,0.0,0.0,0.0,71.3,71.3,71.3,0,0,100,30.25,29.73,0,0,0,0.00
2013-10-15,0.0,0.0,0.0,71.3,71.3,71.3,0,0,100,29.98,29.72,0,0,0,0.00
2013-10-16,0.0,0.0,0.0,71.3,71.3,71.3,0,0,100,30.00,29.91,0,0,0,0.00
2013-10-17,0.0,0.0,0.0,71.3,71.3,71.3,0,0,100,29.97,29.81,0,0,0,0.00
2013-10-18,0.0,0.0,0.0,71.3,71.3,71.3,0,0,100,30.06,29.95,0,0,0,0.00
2013-10-19,0.0,0.0,0.0,71.3,71.3,71.3,0,0,100,29.95,29.75,0,0,0,0.00
2013-10-20,0.0,0.0,0.0,71.3,71.3,71.3,0,0,100,29.92,29.68,0,0,0,0.00
2013-10-21,0.0,0.0,0.0,71.3,71.3,71.3,0,0,100,30.04,29.90,0,0,0,0.00
2013-10-22,0.0,0.0,0.0,71.3,71.3,71.3,0,0,100,30.04,29.78,0,0,0,0.00
2013-10-23,0.0,0.0,0.0,71.3,71.3,71.3,0,0,100,30.11,30.00,0,0,0,0.00
2013-10-24,0.0,0.0,0.0,71.3,71.3,71.3,0,0,100,30.34,30.11,0,0,0,0.00
2013-10-25,0.0,0.0,0.0,71.3,71.3,71.3,0,0,100,30.35,30.01,0,0,0,0.00
2013-10-26,0.0,0.0,0.0,71.3,71.3,71.3,0,0,100,30.12,29.95,0,0,0,0.00
2013-10-27,0.0,0.0,0.0,71.3,71.3,71.3,0,0,100,30.09,29.81,0,0,0,0.00
2013-10-28,0.0,0.0,0.0,71.3,71.3,71.3,0,0,100,30.18,29.91,0,0,0,0.00
2013-10-29,0.0,0.0,0.0,71.3,71.3,71.3,0,0,100,30.11,29.89,0,0,0,0.00
2013-10-30,0.0,0.0,0.0,71.3,71.3,71.3,0,0,100,29.92,29.65,0,0,0,0.00
2013-10-31,0.0,0.0,0.0,71.3,71.3,71.3,0,0,100,29.69,29.46,0,0,0,0.00
2013-11-1,0.0,0.0,0.0,71.3,71.3,71.3,0,0,100,29.89,29.52,0,0,0,0.00
2013-11-2,0.0,0.0,0.0,71.3,71.3,71.3,0,0,100,30.11,29.88,0,0,0,0.00
2013-11-3,0.0,0.0,0.0,71.3,71.3,71.3,0,0,100,30.06,29.76,0,0,0,0.00
2013-11-4,0.0,0.0,0.0,71.3,71.3,71.3,0,0,100,30.07,29.78,0,0,0,0.00
2013-11-5,0.0,0.0,0.0,71.3,71.3,71.3,0,0,100,30.07,29.74,0,0,0,0.00
2013-11-6,0.0,0.0,0.0,71.3,71.3,71.3,0,0,100,30.21,29.88,0,0,0,0.00
2013-11-7,0.0,0.0,0.0,71.3,71.3,71.3,0,0,100,30.29,30.19,0,0,0,0.00
2013-11-8,0.0,0.0,0.0,71.3,71.3,71.3,0,0,100,30.23,29.71,0,0,0,0.00
2013-11-9,0.0,0.0,0.0,71.3,71.3,71.3,0,0,100,30.26,29.85,0,0,0,0.00
2013-11-10,0.0,0.0,0.0,71.3,71.3,71.3,0,0,100,30.35,30.10,0,0,0,0.00
2013-11-11,0.0,0.0,0.0,71.3,71.3,71.3,0,0,100,30.65,30.04,0,0,0,0.00
2013-11-12,0.0,0.0,0.0,71.3,71.3,71.3,0,0,100,30.79,30.52,0,0,0,0.00
2013-11-13,0.0,0.0,0.0,71.3,71.3,71.3,0,0,100,30.53,29.98,0,0,0,0.00
2013-11-14,0.0,0.0,0.0,71.3,71.3,71.3,0,0,100,29.99,29.83,0,0,0,0.00
2013-11-15,0.0,0.0,0.0,71.3,71.3,71.3,0,0,100,29.86,29.62,0,0,0,0.00
2013-11-16,0.0,0.0,0.0,71.3,71.3,71.3,0,0,100,29.62,29.28,0,0,0,0.00
2013-11-17,0.0,0.0,0.0,71.3,71.3,71.3,0,0,100,29.98,29.22,0,0,0,0.00
2013-11-18,0.0,0.0,0.0,71.3,71.3,71.3,0,0,100,30.19,29.98,0,0,0,0.00
2013-11-19,0.0,0.0,0.0,71.3,71.3,71.3,0,0,100,30.15,29.87,0,0,0,0.00
2013-11-20,0.0,0.0,0.0,71.3,71.3,71.3,0,0,100,29.90,29.76,0,0,0,0.00
2013-11-21,0.0,0.0,0.0,71.3,71.3,71.3,0,0,100,30.41,29.89,0,0,0,0.00
2013-11-22,0.0,0.0,0.0,71.3,71.3,71.3,0,0,100,30.59,30.41,0,0,0,0.00
2013-11-23,0.0,0.0,0.0,71.3,71.3,71.3,0,0,100,30.76,30.52,0,0,0,0.00
2013-11-24,0.0,0.0,0.0,71.3,71.3,71.3,0,0,100,30.67,30.18,0,0,0,0.00
2013-11-25,0.0,0.0,0.0,71.3,71.3,71.3,0,0,100,30.18,30.04,0,0,0,0.00
2013-11-26,0.0,0.0,0.0,71.3,71.3,71.3,0,0,100,30.32,30.09,0,0,0,0.00
2013-11-27,0.0,0.0,0.0,71.3,71.3,71.3,0,0,100,30.33,29.99,0,0,0,0.00
2013-11-28,0.0,0.0,0.0,71.3,71.3,71.3,0,0,100,30.42,29.98,0,0,0,0.00
2013-11-29,0.0,0.0,0.0,71.3,71.3,71.3,0,0,100,30.42,30.11,0,0,0,0.00
2013-11-30,0.0,0.0,0.0,71.3,71.3,71.3,0,0,100,30.12,29.98,0,0,0,0.00
2013-12-1,0.0,0.0,0.0,71.3,71.3,71.3,0,0,100,30.08,29.81,0,0,0,0.00
2013-12-2,0.0,0.0,0.0,71.3,71.3,71.3,0,0,100,29.82,29.48,0,0,0,0.00
2013-12-3,0.0,0.0,0.0,71.3,71.3,71.3,0,0,100,29.59,29.44,0,0,0,0.00
2013-12-4,0.0,0.0,0.0,71.3,71.3,71.3,0,0,100,29.93,29.52,0,0,0,0.00
2013-12-5,0.0,0.0,0.0,71.3,71.3,71.3,0,0,100,30.34,29.93,0,0,0,0.00
2013-12-6,0.0,0.0,0.0,71.3,71.3,71.3,0,0,100,30.60,30.34,0,0,0,0.00
2013-12-7,0.0,0.0,0.0,71.3,71.3,71.3,0,0,100,30.66,30.34,0,0,0,0.00
2013-12-8,0.0,0.0,0.0,71.3,71.3,71.3,0,0,100,30.35,29.92,0,0,0,0.00
2013-12-9,0.0,0.0,0.0,71.3,71.3,71.3,0,0,100,30.26,30.05,0,0,0,0.00
2013-12-10,0.0,0.0,0.0,71.3,71.3,71.3,0,0,100,30.17,30.00,0,0,0,0.00
2013-12-11,0.0,0.0,0.0,71.3,71.3,71.3,0,0,100,30.55,30.15,0,0,0,0.00
2013-12-12,0.0,0.0,0.0,71.3,71.3,71.3,0,0,100,30.43,30.03,0,0,0,0.00
2013-12-13,0.0,0.0,0.0,71.3,71.3,71.3,0,0,100,30.03,29.81,0,0,0,0.00
2013-12-14,0.0,0.0,0.0,71.3,71.3,71.3,0,0,100,30.11,29.95,0,0,0,0.00
2013-12-15,0.0,0.0,0.0,71.3,71.3,71.3,0,0,100,30.10,29.90,0,0,0,0.00
2013-12-16,0.0,0.0,0.0,71.3,71.3,71.3,0,0,100,30.09,29.91,0,0,0,0.00
2013-12-17,0.0,0.0,0.0,71.3,71.3,71.3,0,0,100,30.17,30.05,0,0,0,0.00
2013-12-18,0.0,0.0,0.0,71.3,71.3,71.3,0,0,100,30.08,29.67,0,0,0,0.00
2013-12-19,0.0,0.0,0.0,71.3,71.3,71.3,0,0,100,29.76,29.65,0,0,0,0.00
2013-12-20,0.0,0.0,0.0,71.3,71.3,71.3,0,0,100,29.87,29.74,0,0,0,0.00
2013-12-21,0.0,0.0,0.0,71.3,71.3,71.3,0,0,100,29.84,29.67,0,0,0,0.00
2013-12-22,0.0,0.0,0.0,71.3,71.3,71.3,0,0,100,30.28,29.73,0,0,0,0.00
2013-12-23,0.0,0.0,0.0,71.3,71.3,71.3,0,0,100,30.50,30.28,0,0,0,0.00
2013-12-24,0.0,0.0,0.0,71.3,71.3,71.3,0,0,100,30.47,30.10,0,0,0,0.00
2013-12-25,0.0,0.0,0.0,71.3,71.3,71.3,0,0,100,30.23,30.11,0,0,0,0.00
2013-12-26,0.0,0.0,0.0,71.3,71.3,71.3,0,0,100,30.19,30.04,0,0,0,0.00
2013-12-27,0.0,0.0,0.0,71.3,71.3,71.3,0,0,100,30.19,30.03,0,0,0,0.00
2013-12-28,0.0,0.0,0.0,71.3,71.3,71.3,0,0,100,30.03,29.74,0,0,0,0.00
2013-12-29,0.0,0.0,0.0,71.3,71.3,71.3,0,0,100,30.25,29.96,0,0,0,0.00
2013-12-30,0.0,0.0,0.0,71.3,71.3,71.3,0,0,100,30.22,30.01,0,0,0,0.00
2013-12-31,0.0,0.0,0.0,71.3,71.3,71.3,0,0,100,30.20,29.96,0,0,0,0.00
2014-1-1,0.0,0.0,0.0,71.3,71.3,71.3,0,0,100,30.28,30.04,0,0,0,0.00
2014-1-2,0.0,0.0,0.0,71.3,71.3,71.3,0,0,100,30.39,30.25,0,0,0,0.00